Time,TemperatureF,DewpointF,PressureIn,WindDirection,WindDirectionDegrees,WindSpeedMPH,WindSpeedGustMPH,Humidity,HourlyPrecipIn,Conditions,Clouds,dailyrainin,SoftwareType,DateUTC
2013-01-14 00:02:00,-20.0,-27.0,30.66,ENE,61,0.0,-999.0,70,-99.99,,,-99.99,,2013-01-14 07:02:00,
2013-01-14 00:12:00,-20.0,-27.0,30.66,ENE,61,0.0,-999.0,70,-99.99,,,-99.99,,2013-01-14 07:12:00,
2013-01-14 00:22:00,-20.0,-27.0,30.66,ENE,61,0.0,-999.0,70,-99.99,,,-99.99,,2013-01-14 07:22:00,
2013-01-14 00:33:00,-20.0,-27.0,30.66,ENE,61,0.0,-999.0,70,-99.99,,,-99.99,,2013-01-14 07:33:00,
2013-01-14 00:42:00,-20.0,-27.0,30.66,ENE,61,0.0,-999.0,70,-99.99,,,-99.99,,2013-01-14 07:42:00,
2013-01-14 00:52:00,-20.0,-26.0,30.66,ENE,61,0.0,-999.0,71,-99.99,,,-99.99,,2013-01-14 07:52:00,
2013-01-14 01:02:00,-20.0,-27.0,30.66,ENE,61,0.0,-999.0,69,-99.99,,,-99.99,,2013-01-14 08:02:00,
2013-01-14 01:12:00,-20.0,-27.0,30.66,ENE,61,0.0,-999.0,69,-99.99,,,-99.99,,2013-01-14 08:12:00,
2013-01-14 01:22:00,-20.0,-27.0,30.66,ENE,61,0.0,-999.0,69,-99.99,,,-99.99,,2013-01-14 08:22:00,
2013-01-14 01:32:00,-20.0,-27.0,30.66,ENE,61,0.0,-999.0,69,-99.99,,,-99.99,,2013-01-14 08:32:00,
2013-01-14 01:53:00,-22.0,-28.0,30.66,ENE,61,0.0,-999.0,71,-99.99,,,-99.99,,2013-01-14 08:53:00,
2013-01-14 02:02:00,-21.0,-28.0,30.67,ENE,61,0.0,-999.0,70,-99.99,,,-99.99,,2013-01-14 09:02:00,
2013-01-14 02:12:00,-21.0,-28.0,30.67,ENE,61,0.0,-999.0,70,-99.99,,,-99.99,,2013-01-14 09:12:00,
2013-01-14 02:22:00,-21.0,-28.0,30.67,ENE,61,0.0,-999.0,70,-99.99,,,-99.99,,2013-01-14 09:22:00,
2013-01-14 02:33:00,-22.0,-29.0,30.68,ENE,61,0.0,-999.0,70,-99.99,,,-99.99,,2013-01-14 09:33:00,
2013-01-14 02:43:00,-22.0,-29.0,30.68,ENE,61,0.0,-999.0,70,-99.99,,,-99.99,,2013-01-14 09:43:00,
2013-01-14 02:53:00,-22.0,-29.0,30.68,ENE,61,0.0,-999.0,70,-99.99,,,-99.99,,2013-01-14 09:53:00,
2013-01-14 03:02:00,-22.0,-29.0,30.68,ENE,61,0.0,-999.0,70,-99.99,,,-99.99,,2013-01-14 10:02:00,
2013-01-14 03:12:00,-22.0,-29.0,30.68,ENE,61,0.0,-999.0,70,-99.99,,,-99.99,,2013-01-14 10:12:00,
2013-01-14 03:22:00,-22.0,-28.0,30.68,ENE,61,0.0,-999.0,71,-99.99,,,-99.99,,2013-01-14 10:22:00,
2013-01-14 03:32:00,-22.0,-29.0,30.68,ENE,61,0.0,-999.0,69,-99.99,,,-99.99,,2013-01-14 10:32:00,
2013-01-14 03:42:00,-22.0,-29.0,30.68,ENE,61,0.0,-999.0,69,-99.99,,,-99.99,,2013-01-14 10:42:00,
2013-01-14 03:52:00,-23.0,-30.0,30.68,ENE,61,0.0,-999.0,69,-99.99,,,-99.99,,2013-01-14 10:52:00,
2013-01-14 04:02:00,-23.0,-30.0,30.69,ENE,61,0.0,-999.0,70,-99.99,,,-99.99,,2013-01-14 11:02:00,
2013-01-14 04:12:00,-23.0,-30.0,30.69,ENE,61,0.0,-999.0,70,-99.99,,,-99.99,,2013-01-14 11:12:00,
2013-01-14 04:22:00,-22.0,-28.0,30.70,ENE,61,0.0,-999.0,71,-99.99,,,-99.99,,2013-01-14 11:22:00,
2013-01-14 04:32:00,-22.0,-29.0,30.70,ENE,61,0.0,-999.0,70,-99.99,,,-99.99,,2013-01-14 11:32:00,
2013-01-14 04:42:00,-22.0,-29.0,30.70,ENE,61,0.0,-999.0,70,-99.99,,,-99.99,,2013-01-14 11:42:00,
2013-01-14 04:53:00,-22.0,-29.0,30.70,ENE,61,0.0,-999.0,70,-99.99,,,-99.99,,2013-01-14 11:53:00,
2013-01-14 05:03:00,-22.0,-28.0,30.70,ENE,61,0.0,-999.0,71,-99.99,,,-99.99,,2013-01-14 12:03:00,
2013-01-14 05:12:00,-22.0,-28.0,30.70,ENE,61,0.0,-999.0,71,-99.99,,,-99.99,,2013-01-14 12:12:00,
2013-01-14 05:23:00,-21.0,-27.0,30.71,ENE,61,0.0,-999.0,71,-99.99,,,-99.99,,2013-01-14 12:23:00,
2013-01-14 05:33:00,-21.0,-27.0,30.71,ENE,61,0.0,-999.0,71,-99.99,,,-99.99,,2013-01-14 12:33:00,
2013-01-14 05:43:00,-21.0,-27.0,30.71,ENE,61,0.0,-999.0,71,-99.99,,,-99.99,,2013-01-14 12:43:00,
2013-01-14 05:52:00,-21.0,-28.0,30.71,ENE,61,0.0,-999.0,70,-99.99,,,-99.99,,2013-01-14 12:52:00,
2013-01-14 06:03:00,-22.0,-29.0,30.73,ENE,61,0.0,-999.0,70,-99.99,,,-99.99,,2013-01-14 13:03:00,
2013-01-14 06:12:00,-22.0,-29.0,30.73,ENE,61,0.0,-999.0,70,-99.99,,,-99.99,,2013-01-14 13:12:00,
2013-01-14 06:22:00,-22.0,-29.0,30.73,ENE,61,0.0,-999.0,70,-99.99,,,-99.99,,2013-01-14 13:22:00,
2013-01-14 06:33:00,-22.0,-29.0,30.73,ENE,61,0.0,-999.0,70,-99.99,,,-99.99,,2013-01-14 13:33:00,
2013-01-14 06:43:00,-22.0,-29.0,30.73,ENE,61,0.0,-999.0,70,-99.99,,,-99.99,,2013-01-14 13:43:00,
2013-01-14 06:53:00,-23.0,-30.0,30.75,ENE,61,0.0,-999.0,69,-99.99,,,-99.99,,2013-01-14 13:53:00,
2013-01-14 07:03:00,-23.0,-30.0,30.76,ENE,61,0.0,-999.0,70,-99.99,,,-99.99,,2013-01-14 14:03:00,
2013-01-14 07:13:00,-23.0,-30.0,30.76,ENE,61,0.0,-999.0,70,-99.99,,,-99.99,,2013-01-14 14:13:00,
2013-01-14 07:22:00,-23.0,-30.0,30.76,ENE,61,0.0,-999.0,69,-99.99,,,-99.99,,2013-01-14 14:22:00,
2013-01-14 07:33:00,-23.0,-30.0,30.76,ENE,61,0.0,-999.0,69,-99.99,,,-99.99,,2013-01-14 14:33:00,
2013-01-14 07:43:00,-23.0,-30.0,30.76,ENE,61,0.0,-999.0,69,-99.99,,,-99.99,,2013-01-14 14:43:00,
2013-01-14 07:53:00,-23.0,-29.0,30.77,ENE,61,0.0,-999.0,71,-99.99,,,-99.99,,2013-01-14 14:53:00,
2013-01-14 08:03:00,-23.0,-29.0,30.78,ENE,61,0.0,-999.0,71,-99.99,,,-99.99,,2013-01-14 15:03:00,
2013-01-14 08:12:00,-23.0,-29.0,30.78,ENE,61,0.0,-999.0,71,-99.99,,,-99.99,,2013-01-14 15:12:00,
2013-01-14 08:23:00,-22.0,-28.0,30.79,ENE,61,0.0,-999.0,72,-99.99,,,-99.99,,2013-01-14 15:23:00,
2013-01-14 08:33:00,-21.0,-27.0,30.79,ENE,61,0.0,-999.0,72,-99.99,,,-99.99,,2013-01-14 15:33:00,
2013-01-14 08:43:00,-21.0,-27.0,30.79,ENE,61,0.0,-999.0,72,-99.99,,,-99.99,,2013-01-14 15:43:00,
2013-01-14 08:53:00,-20.0,-26.0,30.79,ENE,61,0.0,-999.0,74,-99.99,,,-99.99,,2013-01-14 15:53:00,
2013-01-14 09:03:00,-18.0,-23.0,30.80,ENE,61,0.0,-999.0,77,-99.99,,,-99.99,,2013-01-14 16:03:00,
2013-01-14 09:12:00,-18.0,-23.0,30.80,ENE,61,0.0,-999.0,77,-99.99,,,-99.99,,2013-01-14 16:12:00,
2013-01-14 09:23:00,-15.0,-20.0,30.79,ENE,61,0.0,-999.0,77,-99.99,,,-99.99,,2013-01-14 16:23:00,
2013-01-14 09:33:00,-12.0,-17.0,30.79,ENE,61,0.0,-999.0,77,-99.99,,,-99.99,,2013-01-14 16:33:00,
2013-01-14 09:43:00,-12.0,-17.0,30.79,ENE,61,0.0,-999.0,77,-99.99,,,-99.99,,2013-01-14 16:43:00,
2013-01-14 09:53:00,-10.0,-15.0,30.78,ENE,61,0.0,-999.0,77,-99.99,,,-99.99,,2013-01-14 16:53:00,
2013-01-14 10:03:00,-7.0,-13.0,30.78,NW,317,0.0,-999.0,76,-99.99,,,-99.99,,2013-01-14 17:03:00,
2013-01-14 10:12:00,-7.0,-13.0,30.78,NW,317,0.0,-999.0,76,-99.99,,,-99.99,,2013-01-14 17:12:00,
2013-01-14 10:23:00,-5.0,-11.0,30.78,WNW,298,0.0,-999.0,75,-99.99,,,-99.99,,2013-01-14 17:23:00,
2013-01-14 10:33:00,-3.0,-10.0,30.79,WSW,257,0.0,-999.0,71,-99.99,,,-99.99,,2013-01-14 17:33:00,
2013-01-14 10:43:00,-3.0,-10.0,30.79,WSW,257,0.0,-999.0,71,-99.99,,,-99.99,,2013-01-14 17:43:00,
2013-01-14 10:53:00,-2.0,-11.0,30.78,West,279,1.0,-999.0,65,-99.99,,,-99.99,,2013-01-14 17:53:00,
2013-01-14 11:03:00,-1.0,-11.0,30.78,WNW,296,1.0,-999.0,62,-99.99,,,-99.99,,2013-01-14 18:03:00,
2013-01-14 11:13:00,-1.0,-11.0,30.78,WNW,296,1.0,-999.0,62,-99.99,,,-99.99,,2013-01-14 18:13:00,
2013-01-14 11:23:00,0.0,-10.0,30.78,WSW,238,1.0,-999.0,61,-99.99,,,-99.99,,2013-01-14 18:23:00,
2013-01-14 11:33:00,1.0,-10.0,30.76,WNW,294,1.0,-999.0,58,-99.99,,,-99.99,,2013-01-14 18:33:00,
2013-01-14 11:43:00,1.0,-10.0,30.76,WNW,294,1.0,-999.0,58,-99.99,,,-99.99,,2013-01-14 18:43:00,
2013-01-14 11:52:00,1.0,-12.0,30.76,West,264,1.0,-999.0,54,-99.99,,,-99.99,,2013-01-14 18:52:00,
2013-01-14 12:03:00,1.0,-11.0,30.75,WNW,301,1.0,-999.0,55,-99.99,,,-99.99,,2013-01-14 19:03:00,
2013-01-14 12:12:00,1.0,-11.0,30.75,WNW,301,1.0,-999.0,55,-99.99,,,-99.99,,2013-01-14 19:12:00,
2013-01-14 12:22:00,2.0,-10.0,30.73,WNW,291,0.0,-999.0,55,-99.99,,,-99.99,,2013-01-14 19:22:00,
2013-01-14 12:33:00,2.0,-11.0,30.73,WNW,291,1.0,-999.0,53,-99.99,,,-99.99,,2013-01-14 19:33:00,
2013-01-14 12:43:00,2.0,-11.0,30.73,WNW,291,1.0,-999.0,53,-99.99,,,-99.99,,2013-01-14 19:43:00,
2013-01-14 12:52:00,3.0,-10.0,30.73,West,259,1.0,-999.0,53,-99.99,,,-99.99,,2013-01-14 19:52:00,
2013-01-14 13:03:00,3.0,-10.0,30.71,West,276,1.0,-999.0,53,-99.99,,,-99.99,,2013-01-14 20:03:00,
2013-01-14 13:13:00,3.0,-10.0,30.71,West,276,1.0,-999.0,53,-99.99,,,-99.99,,2013-01-14 20:13:00,
2013-01-14 13:22:00,3.0,-11.0,30.70,West,266,1.0,-999.0,50,-99.99,,,-99.99,,2013-01-14 20:22:00,
2013-01-14 13:33:00,4.0,-10.0,30.70,SW,232,0.0,-999.0,50,-99.99,,,-99.99,,2013-01-14 20:33:00,
2013-01-14 13:43:00,4.0,-10.0,30.70,SW,232,0.0,-999.0,50,-99.99,,,-99.99,,2013-01-14 20:43:00,
2013-01-14 13:53:00,3.0,-11.0,30.69,West,277,0.0,-999.0,51,-99.99,,,-99.99,,2013-01-14 20:53:00,
2013-01-14 14:03:00,3.0,-13.0,30.68,SSW,209,1.0,-999.0,47,-99.99,,,-99.99,,2013-01-14 21:03:00,
2013-01-14 14:12:00,3.0,-13.0,30.68,SSW,209,1.0,-999.0,47,-99.99,,,-99.99,,2013-01-14 21:12:00,
2013-01-14 14:23:00,4.0,-10.0,30.69,WNW,298,2.0,-999.0,51,-99.99,,,-99.99,,2013-01-14 21:23:00,
2013-01-14 14:33:00,3.0,-10.0,30.70,SW,221,1.0,-999.0,54,-99.99,,,-99.99,,2013-01-14 21:33:00,
2013-01-14 14:42:00,3.0,-10.0,30.70,SW,221,1.0,-999.0,54,-99.99,,,-99.99,,2013-01-14 21:42:00,
2013-01-14 14:53:00,3.0,-9.0,30.70,NW,315,0.0,-999.0,57,-99.99,,,-99.99,,2013-01-14 21:53:00,
2013-01-14 15:03:00,2.0,-9.0,30.71,NW,315,0.0,-999.0,58,-99.99,,,-99.99,,2013-01-14 22:03:00,
2013-01-14 15:12:00,2.0,-9.0,30.71,NW,315,0.0,-999.0,58,-99.99,,,-99.99,,2013-01-14 22:12:00,
2013-01-14 15:23:00,2.0,-9.0,30.71,NW,315,0.0,-999.0,58,-99.99,,,-99.99,,2013-01-14 22:23:00,
2013-01-14 15:33:00,2.0,-10.0,30.71,NW,304,0.0,-999.0,56,-99.99,,,-99.99,,2013-01-14 22:33:00,
2013-01-14 15:43:00,2.0,-10.0,30.71,NW,304,0.0,-999.0,56,-99.99,,,-99.99,,2013-01-14 22:43:00,
2013-01-14 15:52:00,2.0,-13.0,30.73,NE,55,0.0,-999.0,48,-99.99,,,-99.99,,2013-01-14 22:52:00,
2013-01-14 16:03:00,2.0,-13.0,30.73,NE,56,0.0,-999.0,49,-99.99,,,-99.99,,2013-01-14 23:03:00,
2013-01-14 16:12:00,2.0,-13.0,30.73,NE,56,0.0,-999.0,49,-99.99,,,-99.99,,2013-01-14 23:12:00,
2013-01-14 16:23:00,2.0,-14.0,30.73,NE,55,1.0,-999.0,47,-99.99,,,-99.99,,2013-01-14 23:23:00,
2013-01-14 16:33:00,1.0,-14.0,30.74,NE,55,0.0,-999.0,48,-99.99,,,-99.99,,2013-01-14 23:33:00,
2013-01-14 16:43:00,1.0,-14.0,30.74,NE,55,0.0,-999.0,48,-99.99,,,-99.99,,2013-01-14 23:43:00,
2013-01-14 16:52:00,0.0,-15.0,30.76,NE,55,0.0,-999.0,47,-99.99,,,-99.99,,2013-01-14 23:52:00,
2013-01-14 17:02:00,0.0,-15.0,30.76,NE,55,0.0,-999.0,48,-99.99,,,-99.99,,2013-01-15 00:02:00,
2013-01-14 17:12:00,0.0,-15.0,30.76,NE,55,0.0,-999.0,48,-99.99,,,-99.99,,2013-01-15 00:12:00,
2013-01-14 17:22:00,0.0,-14.0,30.77,NE,55,0.0,-999.0,50,-99.99,,,-99.99,,2013-01-15 00:22:00,
2013-01-14 17:33:00,-1.0,-14.0,30.78,NE,55,0.0,-999.0,52,-99.99,,,-99.99,,2013-01-15 00:33:00,
2013-01-14 17:43:00,-1.0,-14.0,30.78,NE,55,0.0,-999.0,52,-99.99,,,-99.99,,2013-01-15 00:43:00,
2013-01-14 17:52:00,-2.0,-15.0,30.77,NE,55,0.0,-999.0,53,-99.99,,,-99.99,,2013-01-15 00:52:00,
2013-01-14 18:02:00,-3.0,-16.0,30.79,NE,55,0.0,-999.0,53,-99.99,,,-99.99,,2013-01-15 01:02:00,
2013-01-14 18:12:00,-3.0,-16.0,30.79,NE,55,0.0,-999.0,53,-99.99,,,-99.99,,2013-01-15 01:12:00,
2013-01-14 18:22:00,-3.0,-16.0,30.79,NE,55,0.0,-999.0,53,-99.99,,,-99.99,,2013-01-15 01:22:00,
2013-01-14 18:32:00,-5.0,-17.0,30.79,NE,55,0.0,-999.0,55,-99.99,,,-99.99,,2013-01-15 01:32:00,
2013-01-14 18:43:00,-5.0,-17.0,30.79,NE,55,0.0,-999.0,55,-99.99,,,-99.99,,2013-01-15 01:43:00,
2013-01-14 18:52:00,-6.0,-17.0,30.79,NE,55,0.0,-999.0,57,-99.99,,,-99.99,,2013-01-15 01:52:00,
2013-01-14 19:02:00,-7.0,-18.0,30.80,NE,55,0.0,-999.0,58,-99.99,,,-99.99,,2013-01-15 02:02:00,
2013-01-14 19:12:00,-7.0,-18.0,30.80,NE,55,0.0,-999.0,58,-99.99,,,-99.99,,2013-01-15 02:12:00,
2013-01-14 19:22:00,-7.0,-18.0,30.80,NE,55,0.0,-999.0,58,-99.99,,,-99.99,,2013-01-15 02:22:00,
2013-01-14 19:32:00,-7.0,-18.0,30.79,NE,55,0.0,-999.0,58,-99.99,,,-99.99,,2013-01-15 02:32:00,
2013-01-14 19:42:00,-7.0,-18.0,30.79,NE,55,0.0,-999.0,58,-99.99,,,-99.99,,2013-01-15 02:42:00,
2013-01-14 19:52:00,-8.0,-18.0,30.81,NE,55,0.0,-999.0,59,-99.99,,,-99.99,,2013-01-15 02:52:00,
2013-01-14 20:02:00,-9.0,-19.0,30.80,NE,55,0.0,-999.0,59,-99.99,,,-99.99,,2013-01-15 03:02:00,
2013-01-14 20:12:00,-9.0,-19.0,30.80,NE,55,0.0,-999.0,59,-99.99,,,-99.99,,2013-01-15 03:12:00,
2013-01-14 20:22:00,-9.0,-18.0,30.81,NE,55,0.0,-999.0,62,-99.99,,,-99.99,,2013-01-15 03:22:00,
2013-01-14 20:33:00,-9.0,-18.0,30.81,NE,55,0.0,-999.0,62,-99.99,,,-99.99,,2013-01-15 03:33:00,
2013-01-14 20:42:00,-9.0,-18.0,30.81,NE,55,0.0,-999.0,62,-99.99,,,-99.99,,2013-01-15 03:42:00,
2013-01-14 20:52:00,-9.0,-18.0,30.81,NE,55,0.0,-999.0,63,-99.99,,,-99.99,,2013-01-15 03:52:00,
2013-01-14 21:02:00,-8.0,-17.0,30.81,NE,55,0.0,-999.0,62,-99.99,,,-99.99,,2013-01-15 04:02:00,
2013-01-14 21:12:00,-8.0,-17.0,30.81,NE,55,0.0,-999.0,62,-99.99,,,-99.99,,2013-01-15 04:12:00,
2013-01-14 21:22:00,-8.0,-18.0,30.81,ENE,57,0.0,-999.0,60,-99.99,,,-99.99,,2013-01-15 04:22:00,
2013-01-14 21:32:00,-7.0,-18.0,30.81,ENE,57,0.0,-999.0,58,-99.99,,,-99.99,,2013-01-15 04:32:00,
2013-01-14 21:42:00,-7.0,-18.0,30.81,ENE,57,0.0,-999.0,58,-99.99,,,-99.99,,2013-01-15 04:42:00,
2013-01-14 21:52:00,-7.0,-18.0,30.81,NE,51,0.0,-999.0,58,-99.99,,,-99.99,,2013-01-15 04:52:00,
2013-01-14 22:03:00,-7.0,-19.0,30.80,SW,236,0.0,-999.0,56,-99.99,,,-99.99,,2013-01-15 05:03:00,
2013-01-14 22:12:00,-7.0,-19.0,30.80,SW,236,0.0,-999.0,56,-99.99,,,-99.99,,2013-01-15 05:12:00,
2013-01-14 22:22:00,-7.0,-19.0,30.80,SSW,212,0.0,-999.0,55,-99.99,,,-99.99,,2013-01-15 05:22:00,
2013-01-14 22:33:00,-7.0,-19.0,30.79,WNW,284,0.0,-999.0,54,-99.99,,,-99.99,,2013-01-15 05:33:00,
2013-01-14 22:42:00,-7.0,-19.0,30.79,WNW,284,0.0,-999.0,54,-99.99,,,-99.99,,2013-01-15 05:42:00,
2013-01-14 22:52:00,-7.0,-19.0,30.79,WSW,238,0.0,-999.0,56,-99.99,,,-99.99,,2013-01-15 05:52:00,
2013-01-14 23:02:00,-7.0,-19.0,30.80,ESE,103,0.0,-999.0,54,-99.99,,,-99.99,,2013-01-15 06:02:00,
2013-01-14 23:12:00,-7.0,-19.0,30.80,ESE,103,0.0,-999.0,54,-99.99,,,-99.99,,2013-01-15 06:12:00,
2013-01-14 23:22:00,-7.0,-19.0,30.80,ESE,103,0.0,-999.0,54,-99.99,,,-99.99,,2013-01-15 06:22:00,
2013-01-14 23:33:00,-7.0,-20.0,30.79,East,91,0.0,-999.0,53,-99.99,,,-99.99,,2013-01-15 06:33:00,
2013-01-14 23:43:00,-7.0,-20.0,30.79,East,91,0.0,-999.0,53,-99.99,,,-99.99,,2013-01-15 06:43:00,
2013-01-14 23:53:00,-7.0,-20.0,30.78,East,88,0.0,-999.0,52,-99.99,,,-99.99,,2013-01-15 06:53:00,